Time,TemperatureF,DewpointF,PressureIn,WindDirection,WindDirectionDegrees,WindSpeedMPH,WindSpeedGustMPH,Humidity,HourlyPrecipIn,Conditions,Clouds,dailyrainin,SoftwareType,DateUTC
2013-11-20 00:03:00,53.4,41.1,30.03,SE,143,0.0,0.0,63,0.00,,,0.00,WeatherDisplay:10.37,2013-11-20 06:03:00,
2013-11-20 00:08:00,53.3,41.0,30.03,SE,143,0.0,0.0,63,0.00,,,0.00,WeatherDisplay:10.37,2013-11-20 06:08:00,
2013-11-20 00:13:00,53.1,40.8,30.03,SE,143,0.0,0.0,63,0.00,,,0.00,WeatherDisplay:10.37,2013-11-20 06:13:00,
2013-11-20 00:18:00,53.0,40.7,30.03,SE,143,0.0,0.0,63,0.00,,,0.00,WeatherDisplay:10.37,2013-11-20 06:18:00,
2013-11-20 00:23:00,52.8,41.0,30.03,SE,143,0.0,0.0,64,0.00,,,0.00,WeatherDisplay:10.37,2013-11-20 06:23:00,
2013-11-20 00:28:00,52.6,40.8,30.03,SE,143,0.0,0.0,64,0.00,,,0.00,WeatherDisplay:10.37,2013-11-20 06:28:00,
2013-11-20 00:33:00,52.4,40.6,30.03,SE,143,0.0,0.0,64,0.00,,,0.00,WeatherDisplay:10.37,2013-11-20 06:33:00,
2013-11-20 00:38:00,52.3,40.9,30.03,SE,143,0.0,0.0,65,0.00,,,0.00,WeatherDisplay:10.37,2013-11-20 06:38:00,
2013-11-20 00:43:00,52.2,40.8,30.03,SE,143,0.0,0.0,65,0.00,,,0.00,WeatherDisplay:10.37,2013-11-20 06:43:00,
2013-11-20 00:48:00,52.1,40.7,30.03,SE,143,3.5,0.0,65,0.00,,,0.00,WeatherDisplay:10.37,2013-11-20 06:48:00,
2013-11-20 00:53:00,52.0,40.6,30.03,SE,143,0.0,0.0,65,0.00,,,0.00,WeatherDisplay:10.37,2013-11-20 06:53:00,
2013-11-20 00:58:00,52.0,40.6,30.03,SE,143,0.0,0.0,65,0.00,,,0.00,WeatherDisplay:10.37,2013-11-20 06:58:00,
2013-11-20 01:03:00,51.9,40.5,30.03,SE,143,0.0,0.0,65,0.00,,,0.00,WeatherDisplay:10.37,2013-11-20 07:03:00,
2013-11-20 01:08:00,51.8,40.4,30.03,SE,143,0.0,0.0,65,0.00,,,0.00,WeatherDisplay:10.37,2013-11-20 07:08:00,
2013-11-20 01:13:00,51.7,40.3,30.03,SE,143,0.0,0.0,65,0.00,,,0.00,WeatherDisplay:10.37,2013-11-20 07:13:00,
2013-11-20 01:18:00,51.6,40.2,30.03,SE,143,0.0,0.0,65,0.00,,,0.00,WeatherDisplay:10.37,2013-11-20 07:18:00,
2013-11-20 01:23:00,51.5,40.1,30.03,SE,143,0.0,0.0,65,0.00,,,0.00,WeatherDisplay:10.37,2013-11-20 07:23:00,
2013-11-20 01:28:00,51.6,40.6,30.03,SE,143,0.0,0.0,66,0.00,,,0.00,WeatherDisplay:10.37,2013-11-20 07:28:00,
2013-11-20 01:33:00,51.6,40.6,30.03,SE,143,0.0,0.0,66,0.00,,,0.00,WeatherDisplay:10.37,2013-11-20 07:33:00,
2013-11-20 01:38:00,51.5,40.5,30.03,SE,143,0.0,0.0,66,0.00,,,0.00,WeatherDisplay:10.37,2013-11-20 07:38:00,
2013-11-20 01:43:00,51.6,40.2,30.02,SE,143,0.0,0.0,65,0.00,,,0.00,WeatherDisplay:10.37,2013-11-20 07:43:00,
2013-11-20 01:48:00,51.6,40.2,30.02,SE,143,0.0,0.0,65,0.00,,,0.00,WeatherDisplay:10.37,2013-11-20 07:48:00,
2013-11-20 01:53:00,51.6,40.2,30.02,SE,143,0.0,0.0,65,0.00,,,0.00,WeatherDisplay:10.37,2013-11-20 07:53:00,
2013-11-20 01:58:00,51.5,40.1,30.02,SE,143,0.0,0.0,65,0.00,,,0.00,WeatherDisplay:10.37,2013-11-20 07:58:00,
2013-11-20 02:03:00,51.5,40.1,30.02,SE,143,0.0,0.0,65,0.00,,,0.00,WeatherDisplay:10.37,2013-11-20 08:03:00,
2013-11-20 02:08:00,51.4,40.0,30.02,SE,143,0.0,0.0,65,0.00,,,0.00,WeatherDisplay:10.37,2013-11-20 08:08:00,
2013-11-20 02:13:00,51.3,39.9,30.02,SE,143,0.0,0.0,65,0.00,,,0.00,WeatherDisplay:10.37,2013-11-20 08:13:00,
2013-11-20 02:18:00,51.2,40.2,30.02,SE,143,0.0,0.0,66,0.00,,,0.00,WeatherDisplay:10.37,2013-11-20 08:18:00,
2013-11-20 02:23:00,51.1,40.1,30.03,SE,143,0.0,0.0,66,0.00,,,0.00,WeatherDisplay:10.37,2013-11-20 08:23:00,
2013-11-20 02:28:00,51.0,40.0,30.03,SE,143,0.0,0.0,66,0.00,,,0.00,WeatherDisplay:10.37,2013-11-20 08:28:00,
2013-11-20 02:33:00,51.0,40.0,30.03,SE,143,3.5,3.5,66,0.00,,,0.00,WeatherDisplay:10.37,2013-11-20 08:33:00,
2013-11-20 02:38:00,50.9,40.3,30.02,SE,143,3.5,3.5,67,0.00,,,0.00,WeatherDisplay:10.37,2013-11-20 08:38:00,
2013-11-20 02:43:00,50.9,40.3,30.02,SE,143,3.5,0.0,67,0.00,,,0.00,WeatherDisplay:10.37,2013-11-20 08:43:00,
2013-11-20 02:48:00,50.8,40.6,30.03,SE,143,0.0,0.0,68,0.00,,,0.00,WeatherDisplay:10.37,2013-11-20 08:48:00,
2013-11-20 02:53:00,50.7,40.1,30.03,SE,143,0.0,0.0,67,0.00,,,0.00,WeatherDisplay:10.37,2013-11-20 08:53:00,
2013-11-20 02:58:00,50.5,39.9,30.03,SE,143,0.0,0.0,67,0.00,,,0.00,WeatherDisplay:10.37,2013-11-20 08:58:00,
2013-11-20 03:03:00,50.3,39.8,30.03,SE,143,0.0,0.0,67,0.00,,,0.00,WeatherDisplay:10.37,2013-11-20 09:03:00,
2013-11-20 03:08:00,50.1,39.9,30.03,SE,143,0.0,0.0,68,0.00,,,0.00,WeatherDisplay:10.37,2013-11-20 09:08:00,
2013-11-20 03:13:00,49.9,39.8,30.03,SE,143,0.0,0.0,68,0.00,,,0.00,WeatherDisplay:10.37,2013-11-20 09:13:00,
2013-11-20 03:18:00,49.8,40.0,30.03,SE,143,0.0,0.0,69,0.00,,,0.00,WeatherDisplay:10.37,2013-11-20 09:18:00,
2013-11-20 03:23:00,49.7,39.9,30.03,SE,143,3.5,0.0,69,0.00,,,0.00,WeatherDisplay:10.37,2013-11-20 09:23:00,
2013-11-20 03:28:00,49.6,39.8,30.03,SE,142,2.3,2.3,69,0.00,,,0.00,WeatherDisplay:10.37,2013-11-20 09:28:00,
2013-11-20 03:33:00,49.5,39.7,30.03,SE,143,0.0,0.0,69,0.00,,,0.00,WeatherDisplay:10.37,2013-11-20 09:33:00,
2013-11-20 03:38:00,49.4,40.0,30.03,SE,142,1.0,0.0,70,0.00,,,0.00,WeatherDisplay:10.37,2013-11-20 09:38:00,
2013-11-20 03:43:00,49.3,39.9,30.03,SE,142,0.0,0.0,70,0.00,,,0.00,WeatherDisplay:10.37,2013-11-20 09:43:00,
2013-11-20 03:48:00,49.3,39.9,30.03,SE,142,0.0,0.0,70,0.00,,,0.00,WeatherDisplay:10.37,2013-11-20 09:48:00,
2013-11-20 03:53:00,49.2,39.8,30.03,SE,142,0.0,0.0,70,0.00,,,0.00,WeatherDisplay:10.37,2013-11-20 09:53:00,
2013-11-20 03:58:00,49.2,39.8,30.03,SE,142,0.0,0.0,70,0.00,,,0.00,WeatherDisplay:10.37,2013-11-20 09:58:00,
2013-11-20 04:03:00,49.1,39.7,30.03,SE,142,0.0,0.0,70,0.00,,,0.00,WeatherDisplay:10.37,2013-11-20 10:03:00,
2013-11-20 04:08:00,49.0,39.6,30.03,SE,142,0.0,0.0,70,0.00,,,0.00,WeatherDisplay:10.37,2013-11-20 10:08:00,
2013-11-20 04:13:00,48.9,39.5,30.03,SE,142,0.0,0.0,70,0.00,,,0.00,WeatherDisplay:10.37,2013-11-20 10:13:00,
2013-11-20 04:18:00,48.8,39.8,30.03,SE,142,0.0,0.0,71,0.00,,,0.00,WeatherDisplay:10.37,2013-11-20 10:18:00,
2013-11-20 04:23:00,48.5,39.5,30.03,SE,142,0.0,0.0,71,0.00,,,0.00,WeatherDisplay:10.37,2013-11-20 10:23:00,
2013-11-20 04:28:00,48.2,39.2,30.03,SE,142,0.0,0.0,71,0.00,,,0.00,WeatherDisplay:10.37,2013-11-20 10:28:00,
2013-11-20 04:33:00,48.0,39.0,30.03,SE,142,0.0,0.0,71,0.00,,,0.00,WeatherDisplay:10.37,2013-11-20 10:33:00,
2013-11-20 04:38:00,47.8,39.2,30.03,SE,142,0.0,0.0,72,0.00,,,0.00,WeatherDisplay:10.37,2013-11-20 10:38:00,
2013-11-20 04:43:00,47.7,39.1,30.03,SE,142,0.0,0.0,72,0.00,,,0.00,WeatherDisplay:10.37,2013-11-20 10:43:00,
2013-11-20 04:48:00,47.6,39.4,30.03,SE,142,0.0,0.0,73,0.00,,,0.00,WeatherDisplay:10.37,2013-11-20 10:48:00,
2013-11-20 04:53:00,47.6,39.4,30.03,SE,142,0.0,0.0,73,0.00,,,0.00,WeatherDisplay:10.37,2013-11-20 10:53:00,
2013-11-20 04:58:00,47.5,39.3,30.03,SE,142,0.0,0.0,73,0.00,,,0.00,WeatherDisplay:10.37,2013-11-20 10:58:00,
2013-11-20 05:03:00,47.3,39.1,30.03,SE,142,0.0,0.0,73,0.00,,,0.00,WeatherDisplay:10.37,2013-11-20 11:03:00,
2013-11-20 05:09:00,47.1,38.9,30.03,SE,142,0.0,0.0,73,0.00,,,0.00,WeatherDisplay:10.37,2013-11-20 11:09:00,
2013-11-20 05:14:00,46.9,39.0,30.03,SE,142,0.0,0.0,74,0.00,,,0.00,WeatherDisplay:10.37,2013-11-20 11:14:00,
2013-11-20 05:19:00,46.7,38.9,30.03,SE,142,0.0,0.0,74,0.00,,,0.00,WeatherDisplay:10.37,2013-11-20 11:19:00,
2013-11-20 05:24:00,46.7,38.9,30.02,SE,142,0.0,0.0,74,0.00,,,0.00,WeatherDisplay:10.37,2013-11-20 11:24:00,
2013-11-20 05:29:00,46.8,38.9,30.03,SE,142,0.0,0.0,74,0.00,,,0.00,WeatherDisplay:10.37,2013-11-20 11:29:00,
2013-11-20 05:34:00,46.7,38.9,30.02,SE,142,0.0,0.0,74,0.00,,,0.00,WeatherDisplay:10.37,2013-11-20 11:34:00,
2013-11-20 05:39:00,46.8,38.9,30.03,SE,142,0.0,0.0,74,0.00,,,0.00,WeatherDisplay:10.37,2013-11-20 11:39:00,
2013-11-20 05:44:00,46.8,38.9,30.02,SE,142,0.0,0.0,74,0.00,,,0.00,WeatherDisplay:10.37,2013-11-20 11:44:00,
2013-11-20 05:49:00,46.8,38.9,30.02,SE,142,0.0,0.0,74,0.00,,,0.00,WeatherDisplay:10.37,2013-11-20 11:49:00,
2013-11-20 05:54:00,46.8,38.9,30.02,SE,142,0.0,0.0,74,0.00,,,0.00,WeatherDisplay:10.37,2013-11-20 11:54:00,
2013-11-20 05:59:00,46.7,38.9,30.02,SE,142,0.0,0.0,74,0.00,,,0.00,WeatherDisplay:10.37,2013-11-20 11:59:00,
2013-11-20 06:04:00,46.7,38.9,30.02,SE,142,0.0,0.0,74,0.00,,,0.00,WeatherDisplay:10.37,2013-11-20 12:04:00,
2013-11-20 06:09:00,46.6,38.8,30.03,SE,142,0.0,0.0,74,0.00,,,0.00,WeatherDisplay:10.37,2013-11-20 12:09:00,
2013-11-20 06:14:00,46.4,38.6,30.03,SE,142,0.0,0.0,74,0.00,,,0.00,WeatherDisplay:10.37,2013-11-20 12:14:00,
2013-11-20 06:19:00,46.0,38.2,30.03,SE,142,0.0,0.0,74,0.00,,,0.00,WeatherDisplay:10.37,2013-11-20 12:19:00,
2013-11-20 06:24:00,45.8,38.0,30.02,SE,142,0.0,0.0,74,0.00,,,0.00,WeatherDisplay:10.37,2013-11-20 12:24:00,
2013-11-20 06:29:00,45.5,38.0,30.03,SE,142,0.0,0.0,75,0.00,CLR,,0.00,WeatherDisplay:10.37,2013-11-20 12:29:00,
2013-11-20 06:34:00,45.4,38.3,30.03,SE,142,0.0,0.0,76,0.00,CLR,,0.00,WeatherDisplay:10.37,2013-11-20 12:34:00,
2013-11-20 06:39:00,45.4,38.6,30.03,SE,142,0.0,0.0,77,0.00,CLR,,0.00,WeatherDisplay:10.37,2013-11-20 12:39:00,
2013-11-20 06:44:00,45.5,39.0,30.03,SE,142,0.0,0.0,78,0.00,CLR,,0.00,WeatherDisplay:10.37,2013-11-20 12:44:00,
2013-11-20 06:49:00,45.6,39.1,30.03,SE,142,0.0,0.0,78,0.00,CLR,,0.00,WeatherDisplay:10.37,2013-11-20 12:49:00,
2013-11-20 06:54:00,45.5,39.0,30.04,SE,142,0.0,0.0,78,0.00,CLR,,0.00,WeatherDisplay:10.37,2013-11-20 12:54:00,
2013-11-20 06:59:00,45.5,39.0,30.03,SE,142,0.0,0.0,78,0.00,CLR,,0.00,WeatherDisplay:10.37,2013-11-20 12:59:00,
2013-11-20 07:04:00,45.4,38.9,30.04,SE,142,0.0,0.0,78,0.00,CLR,,0.00,WeatherDisplay:10.37,2013-11-20 13:04:00,
2013-11-20 07:09:00,45.3,38.8,30.04,SE,142,0.0,0.0,78,0.00,CLR,,0.00,WeatherDisplay:10.37,2013-11-20 13:09:00,
2013-11-20 07:14:00,45.3,38.8,30.04,SE,142,0.0,0.0,78,0.00,CLR,,0.00,WeatherDisplay:10.37,2013-11-20 13:14:00,
2013-11-20 07:19:00,45.5,39.0,30.04,SE,142,0.0,0.0,78,0.00,CLR,,0.00,WeatherDisplay:10.37,2013-11-20 13:19:00,
2013-11-20 07:24:00,45.7,38.9,30.03,SE,142,0.0,0.0,77,0.00,CLR,,0.00,WeatherDisplay:10.37,2013-11-20 13:24:00,
2013-11-20 07:29:00,46.0,38.9,30.03,SE,142,0.0,0.0,76,0.00,CLR,,0.00,WeatherDisplay:10.37,2013-11-20 13:29:00,
2013-11-20 07:34:00,46.3,38.8,30.03,SE,142,0.0,0.0,75,0.00,CLR,,0.00,WeatherDisplay:10.37,2013-11-20 13:34:00,
2013-11-20 07:39:00,46.7,39.2,30.03,SE,142,1.1,0.0,75,0.00,CLR,,0.00,WeatherDisplay:10.37,2013-11-20 13:39:00,
2013-11-20 07:44:00,47.2,39.3,30.03,SE,142,3.5,3.5,74,0.00,CLR,,0.00,WeatherDisplay:10.37,2013-11-20 13:44:00,
2013-11-20 07:49:00,47.7,39.1,30.03,SE,142,0.0,0.0,72,0.00,CLR,,0.00,WeatherDisplay:10.37,2013-11-20 13:49:00,
2013-11-20 07:54:00,48.1,39.1,30.03,SE,142,5.8,5.8,71,0.00,CLR,,0.00,WeatherDisplay:10.37,2013-11-20 13:54:00,
2013-11-20 07:59:00,48.5,39.2,30.03,SE,142,0.0,0.0,70,0.00,CLR,,0.00,WeatherDisplay:10.37,2013-11-20 13:59:00,
2013-11-20 08:04:00,49.0,39.3,30.03,SE,143,5.8,5.8,69,0.00,CLR,,0.00,WeatherDisplay:10.37,2013-11-20 14:04:00,
2013-11-20 08:09:00,49.5,39.7,30.02,SE,145,5.8,5.8,69,0.00,CLR,,0.00,WeatherDisplay:10.37,2013-11-20 14:09:00,
2013-11-20 08:14:00,49.7,39.2,30.02,SE,144,6.9,6.9,67,0.00,CLR,,0.00,WeatherDisplay:10.37,2013-11-20 14:14:00,
2013-11-20 08:19:00,50.0,39.5,30.03,SE,143,8.1,8.1,67,0.00,CLR,,0.00,WeatherDisplay:10.37,2013-11-20 14:19:00,
2013-11-20 08:24:00,50.4,39.5,30.02,SE,144,6.9,6.9,66,0.00,CLR,,0.00,WeatherDisplay:10.37,2013-11-20 14:24:00,
2013-11-20 08:29:00,50.7,39.7,30.02,SE,138,3.5,3.5,66,0.00,CLR,,0.00,WeatherDisplay:10.37,2013-11-20 14:29:00,
2013-11-20 08:34:00,51.0,39.6,30.02,SE,138,5.8,5.8,65,0.00,CLR,,0.00,WeatherDisplay:10.37,2013-11-20 14:34:00,
2013-11-20 08:39:00,51.2,39.8,30.02,SE,138,3.5,3.5,65,0.00,CLR,,0.00,WeatherDisplay:10.37,2013-11-20 14:39:00,
2013-11-20 08:44:00,51.7,39.9,30.02,SE,140,3.5,3.5,64,0.00,CLR,,0.00,WeatherDisplay:10.37,2013-11-20 14:44:00,
2013-11-20 08:49:00,52.3,40.1,30.02,SE,142,10.4,10.4,63,0.00,CLR,,0.00,WeatherDisplay:10.37,2013-11-20 14:49:00,
2013-11-20 08:54:00,52.6,39.9,30.02,SSE,147,10.4,10.4,62,0.00,CLR,,0.00,WeatherDisplay:10.37,2013-11-20 14:54:00,
2013-11-20 08:59:00,52.9,40.2,30.02,SE,145,5.8,5.8,62,0.00,CLR,,0.00,WeatherDisplay:10.37,2013-11-20 14:59:00,
2013-11-20 09:04:00,53.0,39.9,30.02,SSE,154,6.0,6.0,61,0.00,CLR,,0.00,WeatherDisplay:10.37,2013-11-20 15:04:00,
2013-11-20 09:09:00,53.3,40.6,30.02,SSE,155,3.5,3.5,62,0.00,CLR,,0.00,WeatherDisplay:10.37,2013-11-20 15:09:00,
2013-11-20 09:14:00,53.7,41.0,30.03,SSE,148,2.3,2.3,62,0.00,CLR,,0.00,WeatherDisplay:10.37,2013-11-20 15:14:00,
2013-11-20 09:19:00,54.1,40.9,30.03,SSE,148,3.5,3.5,61,0.00,CLR,,0.00,WeatherDisplay:10.37,2013-11-20 15:19:00,
2013-11-20 09:24:00,54.4,40.8,30.03,SSE,149,3.5,3.5,60,0.00,CLR,,0.00,WeatherDisplay:10.37,2013-11-20 15:24:00,
2013-11-20 09:29:00,54.7,40.6,30.03,SSE,148,6.9,6.9,59,0.00,CLR,,0.00,WeatherDisplay:10.37,2013-11-20 15:29:00,
2013-11-20 09:34:00,55.1,41.5,30.04,SSE,148,5.8,5.8,60,0.00,CLR,,0.00,WeatherDisplay:10.37,2013-11-20 15:34:00,
2013-11-20 09:39:00,55.5,42.3,30.05,SSE,163,4.6,4.6,61,0.00,CLR,,0.00,WeatherDisplay:10.37,2013-11-20 15:39:00,
2013-11-20 09:44:00,55.9,42.6,30.04,South,171,4.6,4.6,61,0.00,CLR,,0.00,WeatherDisplay:10.37,2013-11-20 15:44:00,
2013-11-20 09:49:00,56.1,42.8,30.04,South,169,3.5,3.5,61,0.00,CLR,,0.00,WeatherDisplay:10.37,2013-11-20 15:49:00,
2013-11-20 09:54:00,56.4,42.7,30.04,SSE,161,4.6,4.6,60,0.00,CLR,,0.00,WeatherDisplay:10.37,2013-11-20 15:54:00,
2013-11-20 09:59:00,56.7,43.4,30.04,SSE,161,8.1,8.1,61,0.00,CLR,,0.00,WeatherDisplay:10.37,2013-11-20 15:59:00,
2013-11-20 10:04:00,56.7,43.0,30.04,SSE,151,8.0,8.0,60,0.00,CLR,,0.00,WeatherDisplay:10.37,2013-11-20 16:04:00,
2013-11-20 10:09:00,56.9,43.6,30.04,SSE,156,10.4,10.4,61,0.00,CLR,,0.00,WeatherDisplay:10.37,2013-11-20 16:09:00,
2013-11-20 10:14:00,57.0,43.2,30.04,SSE,150,5.8,5.8,60,0.00,CLR,,0.00,WeatherDisplay:10.37,2013-11-20 16:14:00,
2013-11-20 10:19:00,57.3,44.0,30.04,SSE,148,9.2,9.2,61,0.00,CLR,,0.00,WeatherDisplay:10.37,2013-11-20 16:19:00,
2013-11-20 10:24:00,57.5,43.7,30.04,SSE,147,10.4,10.4,60,0.00,CLR,,0.00,WeatherDisplay:10.37,2013-11-20 16:24:00,
2013-11-20 10:29:00,57.4,44.1,30.04,SSE,153,6.9,6.9,61,0.00,CLR,,0.00,WeatherDisplay:10.37,2013-11-20 16:29:00,
2013-11-20 10:34:00,57.4,44.1,30.03,SSE,153,6.9,6.9,61,0.00,CLR,,0.00,WeatherDisplay:10.37,2013-11-20 16:34:00,
2013-11-20 10:39:00,57.5,44.1,30.03,SSE,153,11.5,11.5,61,0.00,CLR,,0.00,WeatherDisplay:10.37,2013-11-20 16:39:00,
2013-11-20 10:44:00,57.5,44.1,30.04,SSE,154,12.0,12.0,61,0.00,CLR,,0.00,WeatherDisplay:10.37,2013-11-20 16:44:00,
2013-11-20 10:49:00,57.5,44.1,30.03,SE,144,6.0,6.0,61,0.00,CLR,,0.00,WeatherDisplay:10.37,2013-11-20 16:49:00,
2013-11-20 10:55:00,57.6,44.2,30.03,SSE,150,8.1,8.1,61,0.00,CLR,,0.00,WeatherDisplay:10.37,2013-11-20 16:55:00,
2013-11-20 11:00:00,57.7,44.8,30.03,SSE,153,3.5,3.5,62,0.00,CLR,,0.00,WeatherDisplay:10.37,2013-11-20 17:00:00,
2013-11-20 11:05:00,57.8,44.9,30.03,SSE,151,6.9,6.9,62,0.00,CLR,,0.00,WeatherDisplay:10.37,2013-11-20 17:05:00,
2013-11-20 11:10:00,57.8,45.3,30.03,SSE,153,5.0,5.0,63,0.00,CLR,,0.00,WeatherDisplay:10.37,2013-11-20 17:10:00,
2013-11-20 11:15:00,58.0,45.0,30.02,SSE,153,10.4,10.4,62,0.00,CLR,,0.00,WeatherDisplay:10.37,2013-11-20 17:15:00,
2013-11-20 11:20:00,58.0,45.5,30.02,SSE,153,5.8,5.8,63,0.00,CLR,,0.00,WeatherDisplay:10.37,2013-11-20 17:20:00,
2013-11-20 11:25:00,58.1,46.0,30.02,SSE,166,6.9,6.9,64,0.00,CLR,,0.00,WeatherDisplay:10.37,2013-11-20 17:25:00,
2013-11-20 11:30:00,58.1,46.0,30.02,SSE,164,6.9,6.9,64,0.00,CLR,,0.00,WeatherDisplay:10.37,2013-11-20 17:30:00,
2013-11-20 11:35:00,57.9,45.8,30.02,SSE,158,8.1,8.1,64,0.00,CLR,,0.00,WeatherDisplay:10.37,2013-11-20 17:35:00,
2013-11-20 11:40:00,58.0,45.5,30.01,SSE,155,6.9,6.9,63,0.00,CLR,,0.00,WeatherDisplay:10.37,2013-11-20 17:40:00,
2013-11-20 11:45:00,58.3,45.8,30.00,SSE,150,10.4,10.4,63,0.00,CLR,,0.00,WeatherDisplay:10.37,2013-11-20 17:45:00,
2013-11-20 11:50:00,59.0,47.2,30.00,SSE,150,3.5,3.5,65,0.00,CLR,,0.00,WeatherDisplay:10.37,2013-11-20 17:50:00,
2013-11-20 11:55:00,59.0,46.4,30.00,SSE,148,6.9,6.9,63,0.00,CLR,,0.00,WeatherDisplay:10.37,2013-11-20 17:55:00,
2013-11-20 12:00:00,59.3,47.1,29.99,SSE,155,5.8,5.8,64,0.00,CLR,,0.00,WeatherDisplay:10.37,2013-11-20 18:00:00,
2013-11-20 12:05:00,59.7,47.5,29.99,SSE,155,4.0,4.0,64,0.00,CLR,,0.00,WeatherDisplay:10.37,2013-11-20 18:05:00,
2013-11-20 12:10:00,59.8,47.6,29.99,SSE,153,4.6,4.6,64,0.00,CLR,,0.00,WeatherDisplay:10.37,2013-11-20 18:10:00,
2013-11-20 12:15:00,60.2,48.0,29.99,SSE,153,3.5,3.5,64,0.00,CLR,,0.00,WeatherDisplay:10.37,2013-11-20 18:15:00,
2013-11-20 12:20:00,60.7,48.9,29.98,SSE,153,8.1,8.1,65,0.00,CLR,,0.00,WeatherDisplay:10.37,2013-11-20 18:20:00,
2013-11-20 12:25:00,61.0,49.1,29.98,SSE,159,7.0,7.0,65,0.00,CLR,,0.00,WeatherDisplay:10.37,2013-11-20 18:25:00,
2013-11-20 12:30:00,61.3,49.0,29.98,SSE,153,3.5,3.5,64,0.00,CLR,,0.00,WeatherDisplay:10.37,2013-11-20 18:30:00,
2013-11-20 12:35:00,61.3,49.0,29.98,SSE,151,5.0,5.0,64,0.00,CLR,,0.00,WeatherDisplay:10.37,2013-11-20 18:35:00,
2013-11-20 12:40:00,61.4,49.5,29.98,SSE,160,6.9,6.9,65,0.00,CLR,,0.00,WeatherDisplay:10.37,2013-11-20 18:40:00,
2013-11-20 12:45:00,61.3,49.4,29.98,SSE,158,7.0,7.0,65,0.00,CLR,,0.00,WeatherDisplay:10.37,2013-11-20 18:45:00,
2013-11-20 12:50:00,61.3,49.4,29.98,SSE,155,8.1,8.1,65,0.00,CLR,,0.00,WeatherDisplay:10.37,2013-11-20 18:50:00,
2013-11-20 12:55:00,61.4,49.5,29.98,SSE,154,3.5,3.5,65,0.00,CLR,,0.00,WeatherDisplay:10.37,2013-11-20 18:55:00,
2013-11-20 13:00:00,61.6,49.7,29.98,SSE,154,4.6,4.6,65,0.00,,,0.00,WeatherDisplay:10.37,2013-11-20 19:00:00,
2013-11-20 13:05:00,61.5,49.6,29.98,SE,146,11.5,11.5,65,0.00,,,0.00,WeatherDisplay:10.37,2013-11-20 19:05:00,
2013-11-20 13:10:00,61.5,49.6,29.97,SSE,148,3.5,3.5,65,0.00,,,0.00,WeatherDisplay:10.37,2013-11-20 19:10:00,
2013-11-20 13:15:00,61.7,50.2,29.97,SSE,148,3.5,3.5,66,0.00,,,0.00,WeatherDisplay:10.37,2013-11-20 19:15:00,
2013-11-20 13:20:00,61.9,50.0,29.97,SSE,148,3.5,3.5,65,0.00,,,0.00,WeatherDisplay:10.37,2013-11-20 19:20:00,
2013-11-20 13:25:00,62.1,50.2,29.96,SSE,148,5.0,5.0,65,0.00,,,0.00,WeatherDisplay:10.37,2013-11-20 19:25:00,
2013-11-20 13:30:00,61.9,50.4,29.96,SSE,150,3.5,3.5,66,0.00,,,0.00,WeatherDisplay:10.37,2013-11-20 19:30:00,
2013-11-20 13:35:00,62.2,51.1,29.96,SSE,150,0.0,0.1,67,0.00,,,0.00,WeatherDisplay:10.37,2013-11-20 19:35:00,
2013-11-20 13:40:00,62.3,50.8,29.96,SE,146,3.5,3.5,66,0.00,,,0.00,WeatherDisplay:10.37,2013-11-20 19:40:00,
2013-11-20 13:45:00,62.1,50.2,29.95,SE,146,4.6,4.6,65,0.00,,,0.00,WeatherDisplay:10.37,2013-11-20 19:45:00,
2013-11-20 13:50:00,62.1,50.6,29.95,SE,144,4.6,4.6,66,0.00,,,0.00,WeatherDisplay:10.37,2013-11-20 19:50:00,
2013-11-20 13:55:00,62.1,50.6,29.96,SE,146,3.5,3.5,66,0.00,,,0.00,WeatherDisplay:10.37,2013-11-20 19:55:00,
2013-11-20 14:00:00,62.2,50.7,29.95,SE,146,5.8,5.8,66,0.00,,,0.00,WeatherDisplay:10.37,2013-11-20 20:00:00,
2013-11-20 14:05:00,62.2,50.7,29.95,SE,146,4.6,4.6,66,0.00,,,0.00,WeatherDisplay:10.37,2013-11-20 20:05:00,
2013-11-20 14:10:00,62.3,50.8,29.95,SE,146,5.8,5.8,66,0.00,,,0.00,WeatherDisplay:10.37,2013-11-20 20:10:00,
2013-11-20 14:15:00,62.2,50.7,29.95,SE,143,6.9,6.9,66,0.00,,,0.00,WeatherDisplay:10.37,2013-11-20 20:15:00,
2013-11-20 14:20:00,62.2,50.7,29.94,SSE,152,5.8,5.8,66,0.00,,,0.00,WeatherDisplay:10.37,2013-11-20 20:20:00,
2013-11-20 14:25:00,62.3,50.8,29.95,SSE,153,6.9,6.9,66,0.00,,,0.00,WeatherDisplay:10.37,2013-11-20 20:25:00,
2013-11-20 14:30:00,62.4,51.3,29.94,SSE,147,4.6,4.6,67,0.00,,,0.00,WeatherDisplay:10.37,2013-11-20 20:30:00,
2013-11-20 14:35:00,62.5,51.4,29.94,SSE,149,3.5,3.5,67,0.00,,,0.00,WeatherDisplay:10.37,2013-11-20 20:35:00,
2013-11-20 14:40:00,62.5,51.8,29.94,SSE,150,3.5,3.5,68,0.00,,,0.00,WeatherDisplay:10.37,2013-11-20 20:40:00,
2013-11-20 14:45:00,62.6,51.5,29.94,SSE,150,3.5,3.5,67,0.00,,,0.00,WeatherDisplay:10.37,2013-11-20 20:45:00,
2013-11-20 14:50:00,62.7,51.6,29.94,SSE,150,4.6,4.6,67,0.00,,,0.00,WeatherDisplay:10.37,2013-11-20 20:50:00,
2013-11-20 14:55:00,62.8,51.7,29.93,SSE,148,4.6,4.6,67,0.00,,,0.00,WeatherDisplay:10.37,2013-11-20 20:55:00,
2013-11-20 15:00:00,62.9,51.8,29.93,SE,146,4.6,4.6,67,0.00,,,0.00,WeatherDisplay:10.37,2013-11-20 21:00:00,
2013-11-20 15:05:00,63.1,52.4,29.93,SSE,147,5.8,5.8,68,0.00,,,0.00,WeatherDisplay:10.37,2013-11-20 21:05:00,
2013-11-20 15:10:00,63.2,52.5,29.93,SSE,151,6.0,6.0,68,0.00,,,0.00,WeatherDisplay:10.37,2013-11-20 21:10:00,
2013-11-20 15:15:00,63.4,52.7,29.93,SSE,153,3.5,3.5,68,0.00,,,0.00,WeatherDisplay:10.37,2013-11-20 21:15:00,
2013-11-20 15:20:00,63.4,52.7,29.93,SE,145,6.9,6.9,68,0.00,,,0.00,WeatherDisplay:10.37,2013-11-20 21:20:00,
2013-11-20 15:25:00,63.4,52.7,29.92,SE,145,4.6,4.6,68,0.00,,,0.00,WeatherDisplay:10.37,2013-11-20 21:25:00,
2013-11-20 15:30:00,63.6,52.8,29.92,SE,145,3.5,3.5,68,0.00,,,0.00,WeatherDisplay:10.37,2013-11-20 21:30:00,
2013-11-20 15:35:00,63.7,52.9,29.92,SE,143,4.0,4.0,68,0.00,,,0.00,WeatherDisplay:10.37,2013-11-20 21:35:00,
2013-11-20 15:40:00,63.9,53.1,29.92,SE,143,0.0,0.0,68,0.00,,,0.00,WeatherDisplay:10.37,2013-11-20 21:40:00,
2013-11-20 15:45:00,64.0,53.2,29.93,SE,142,4.6,4.6,68,0.00,,,0.00,WeatherDisplay:10.37,2013-11-20 21:45:00,
2013-11-20 15:50:00,64.1,53.3,29.93,SE,142,3.5,3.5,68,0.00,,,0.00,WeatherDisplay:10.37,2013-11-20 21:50:00,
2013-11-20 15:55:00,64.1,53.3,29.93,SE,144,4.6,4.6,68,0.00,,,0.00,WeatherDisplay:10.37,2013-11-20 21:55:00,
2013-11-20 16:00:00,64.1,53.3,29.93,SE,144,5.8,5.8,68,0.00,,,0.00,WeatherDisplay:10.37,2013-11-20 22:00:00,
2013-11-20 16:05:00,64.0,53.2,29.92,SE,141,3.5,3.5,68,0.00,,,0.00,WeatherDisplay:10.37,2013-11-20 22:05:00,
2013-11-20 16:10:00,64.1,53.3,29.93,SE,142,2.3,2.3,68,0.00,,,0.00,WeatherDisplay:10.37,2013-11-20 22:10:00,
2013-11-20 16:16:00,64.3,53.9,29.93,SE,144,0.0,0.0,69,0.00,,,0.00,WeatherDisplay:10.37,2013-11-20 22:16:00,
2013-11-20 16:21:00,64.5,54.1,29.93,SE,144,1.1,0.0,69,0.00,,,0.00,WeatherDisplay:10.37,2013-11-20 22:21:00,
2013-11-20 16:26:00,64.7,53.9,29.93,SE,144,5.0,5.0,68,0.00,,,0.00,WeatherDisplay:10.37,2013-11-20 22:26:00,
2013-11-20 16:31:00,64.7,53.9,29.93,SE,143,3.5,3.5,68,0.00,,,0.00,WeatherDisplay:10.37,2013-11-20 22:31:00,
2013-11-20 16:36:00,64.6,53.8,29.93,SSE,152,6.9,6.9,68,0.00,,,0.00,WeatherDisplay:10.37,2013-11-20 22:36:00,
2013-11-20 16:41:00,64.6,54.2,29.93,SSE,150,2.3,0.0,69,0.00,,,0.00,WeatherDisplay:10.37,2013-11-20 22:41:00,
2013-11-20 16:46:00,64.5,54.1,29.93,SSE,149,1.1,1.1,69,0.00,,,0.00,WeatherDisplay:10.37,2013-11-20 22:46:00,
2013-11-20 16:51:00,64.5,54.5,29.93,SSE,148,5.0,5.0,70,0.00,,,0.00,WeatherDisplay:10.37,2013-11-20 22:51:00,
2013-11-20 16:56:00,64.5,54.5,29.93,SSE,148,3.5,3.5,70,0.00,,,0.00,WeatherDisplay:10.37,2013-11-20 22:56:00,
2013-11-20 17:01:00,64.5,54.5,29.93,SSE,148,3.5,3.5,70,0.00,CLR,,0.00,WeatherDisplay:10.37,2013-11-20 23:01:00,
2013-11-20 17:06:00,64.4,54.4,29.93,SSE,148,3.0,3.0,70,0.00,CLR,,0.00,WeatherDisplay:10.37,2013-11-20 23:06:00,
2013-11-20 17:11:00,64.3,54.3,29.93,SSE,148,0.0,0.0,70,0.00,CLR,,0.00,WeatherDisplay:10.37,2013-11-20 23:11:00,
2013-11-20 17:16:00,64.1,54.5,29.93,SSE,148,0.0,0.0,71,0.00,CLR,,0.00,WeatherDisplay:10.37,2013-11-20 23:16:00,
2013-11-20 17:21:00,64.0,54.4,29.94,SSE,148,0.0,0.0,71,0.00,CLR,,0.00,WeatherDisplay:10.37,2013-11-20 23:21:00,
2013-11-20 17:26:00,63.9,54.3,29.94,SSE,148,0.0,0.0,71,0.00,CLR,,0.00,WeatherDisplay:10.37,2013-11-20 23:26:00,
2013-11-20 17:31:00,63.8,54.6,29.94,SSE,148,0.0,0.0,72,0.00,CLR,,0.00,WeatherDisplay:10.37,2013-11-20 23:31:00,
2013-11-20 17:36:00,63.8,54.6,29.94,SSE,148,0.0,0.0,72,0.00,CLR,,0.00,WeatherDisplay:10.37,2013-11-20 23:36:00,
2013-11-20 17:41:00,63.7,54.5,29.95,SSE,148,0.0,0.0,72,0.00,CLR,,0.00,WeatherDisplay:10.37,2013-11-20 23:41:00,
2013-11-20 17:46:00,63.7,54.5,29.95,SSE,148,0.0,0.0,72,0.00,CLR,,0.00,WeatherDisplay:10.37,2013-11-20 23:46:00,
2013-11-20 17:51:00,63.6,54.4,29.95,SSE,148,0.0,0.0,72,0.00,CLR,,0.00,WeatherDisplay:10.37,2013-11-20 23:51:00,
2013-11-20 17:56:00,63.4,54.2,29.95,SSE,148,0.0,0.0,72,0.00,,,0.00,WeatherDisplay:10.37,2013-11-20 23:56:00,
2013-11-20 18:01:00,63.2,54.0,29.95,SSE,148,1.1,1.1,72,0.00,,,0.00,WeatherDisplay:10.37,2013-11-21 00:01:00,
2013-11-20 18:06:00,63.1,53.9,29.95,SSE,148,1.1,1.1,72,0.00,,,0.00,WeatherDisplay:10.37,2013-11-21 00:06:00,
2013-11-20 18:11:00,63.1,53.9,29.96,SSE,148,0.0,0.0,72,0.00,,,0.00,WeatherDisplay:10.37,2013-11-21 00:11:00,
2013-11-20 18:16:00,63.0,53.8,29.96,SSE,148,1.1,1.1,72,0.00,,,0.00,WeatherDisplay:10.37,2013-11-21 00:16:00,
2013-11-20 18:21:00,62.9,53.7,29.96,SSE,148,3.5,3.5,72,0.00,,,0.00,WeatherDisplay:10.37,2013-11-21 00:21:00,
2013-11-20 18:26:00,62.9,54.1,29.96,SSE,148,0.0,0.0,73,0.00,,,0.00,WeatherDisplay:10.37,2013-11-21 00:26:00,
2013-11-20 18:31:00,62.8,54.0,29.96,SSE,148,1.0,0.0,73,0.00,,,0.00,WeatherDisplay:10.37,2013-11-21 00:31:00,
2013-11-20 18:36:00,62.8,54.0,29.96,SSE,148,0.0,0.0,73,0.00,,,0.00,WeatherDisplay:10.37,2013-11-21 00:36:00,
2013-11-20 18:41:00,62.8,54.4,29.96,SSE,148,1.0,1.2,74,0.00,,,0.00,WeatherDisplay:10.37,2013-11-21 00:41:00,
2013-11-20 18:46:00,62.9,54.5,29.97,SSE,148,0.0,0.0,74,0.00,,,0.00,WeatherDisplay:10.37,2013-11-21 00:46:00,
2013-11-20 18:51:00,62.9,54.5,29.97,SSE,148,0.0,0.0,74,0.00,,,0.00,WeatherDisplay:10.37,2013-11-21 00:51:00,
2013-11-20 18:56:00,63.0,54.6,29.97,SSE,148,3.5,3.5,74,0.00,,,0.00,WeatherDisplay:10.37,2013-11-21 00:56:00,
2013-11-20 19:01:00,63.0,54.6,29.97,SSE,148,0.0,0.0,74,0.00,,,0.00,WeatherDisplay:10.37,2013-11-21 01:01:00,
2013-11-20 19:06:00,63.1,54.7,29.97,SSE,149,4.6,4.6,74,0.00,,,0.00,WeatherDisplay:10.37,2013-11-21 01:06:00,
2013-11-20 19:11:00,63.1,54.7,29.97,SSE,149,0.0,0.0,74,0.00,,,0.00,WeatherDisplay:10.37,2013-11-21 01:11:00,
2013-11-20 19:16:00,63.2,54.8,29.98,SSE,149,0.0,0.0,74,0.00,,,0.00,WeatherDisplay:10.37,2013-11-21 01:16:00,
2013-11-20 19:21:00,63.2,55.1,29.98,SSE,149,3.5,3.5,75,0.00,,,0.00,WeatherDisplay:10.37,2013-11-21 01:21:00,
2013-11-20 19:26:00,63.2,55.1,29.98,SSE,149,0.0,0.0,75,0.00,,,0.00,WeatherDisplay:10.37,2013-11-21 01:26:00,
2013-11-20 19:31:00,63.2,55.1,29.98,SSE,149,0.0,0.0,75,0.00,,,0.00,WeatherDisplay:10.37,2013-11-21 01:31:00,
2013-11-20 19:36:00,63.2,55.1,29.97,SSE,149,0.0,0.0,75,0.00,,,0.00,WeatherDisplay:10.37,2013-11-21 01:36:00,
2013-11-20 19:41:00,63.2,55.1,29.97,SSE,149,0.0,0.0,75,0.00,,,0.00,WeatherDisplay:10.37,2013-11-21 01:41:00,
2013-11-20 19:46:00,63.2,55.1,29.96,SSE,149,3.5,0.0,75,0.00,,,0.00,WeatherDisplay:10.37,2013-11-21 01:46:00,
2013-11-20 19:51:00,63.1,55.4,29.96,SSE,149,3.5,0.0,76,0.00,,,0.00,WeatherDisplay:10.37,2013-11-21 01:51:00,
2013-11-20 19:56:00,63.1,55.4,29.96,SSE,149,3.5,3.5,76,0.00,,,0.00,WeatherDisplay:10.37,2013-11-21 01:56:00,
2013-11-20 20:01:00,63.1,55.4,29.96,SSE,149,3.5,3.5,76,0.00,,,0.00,WeatherDisplay:10.37,2013-11-21 02:01:00,
2013-11-20 20:06:00,63.1,55.4,29.97,SSE,149,3.0,3.0,76,0.00,,,0.00,WeatherDisplay:10.37,2013-11-21 02:06:00,
2013-11-20 20:11:00,63.1,55.4,29.97,SSE,149,1.1,0.0,76,0.00,,,0.00,WeatherDisplay:10.37,2013-11-21 02:11:00,
2013-11-20 20:16:00,63.1,55.4,29.96,SSE,148,4.6,4.6,76,0.00,,,0.00,WeatherDisplay:10.37,2013-11-21 02:16:00,
2013-11-20 20:21:00,63.2,55.5,29.97,SSE,148,0.0,0.0,76,0.00,,,0.00,WeatherDisplay:10.37,2013-11-21 02:21:00,
2013-11-20 20:26:00,63.2,55.9,29.97,SSE,148,4.6,4.6,77,0.00,,,0.00,WeatherDisplay:10.37,2013-11-21 02:26:00,
2013-11-20 20:31:00,63.2,55.9,29.97,SSE,148,4.6,4.6,77,0.00,,,0.00,WeatherDisplay:10.37,2013-11-21 02:31:00,
2013-11-20 20:36:00,63.2,55.9,29.97,SSE,148,3.5,0.0,77,0.00,,,0.00,WeatherDisplay:10.37,2013-11-21 02:36:00,
2013-11-20 20:41:00,63.3,56.0,29.97,SSE,148,3.0,3.0,77,0.00,,,0.00,WeatherDisplay:10.37,2013-11-21 02:41:00,
2013-11-20 20:46:00,63.3,56.0,29.97,SSE,148,2.3,2.3,77,0.00,,,0.00,WeatherDisplay:10.37,2013-11-21 02:46:00,
2013-11-20 20:51:00,63.3,56.0,29.97,SSE,147,4.6,4.6,77,0.00,,,0.00,WeatherDisplay:10.37,2013-11-21 02:51:00,
2013-11-20 20:56:00,63.3,56.0,29.97,SSE,148,7.0,7.0,77,0.00,,,0.00,WeatherDisplay:10.37,2013-11-21 02:56:00,
2013-11-20 21:01:00,63.3,56.3,29.97,SSE,148,3.5,3.5,78,0.00,,,0.00,WeatherDisplay:10.37,2013-11-21 03:01:00,
2013-11-20 21:06:00,63.3,56.3,29.97,SSE,148,6.0,6.0,78,0.00,,,0.00,WeatherDisplay:10.37,2013-11-21 03:06:00,
2013-11-20 21:11:00,63.4,56.8,29.96,SSE,152,5.8,5.8,79,0.00,,,0.00,WeatherDisplay:10.37,2013-11-21 03:11:00,
2013-11-20 21:16:00,63.5,56.9,29.96,SSE,149,9.2,9.2,79,0.00,,,0.00,WeatherDisplay:10.37,2013-11-21 03:16:00,
2013-11-20 21:22:00,63.5,56.9,29.96,SSE,148,4.6,4.6,79,0.00,,,0.00,WeatherDisplay:10.37,2013-11-21 03:22:00,
2013-11-20 21:27:00,63.6,57.3,29.97,SSE,149,5.8,5.8,80,0.00,,,0.00,WeatherDisplay:10.37,2013-11-21 03:27:00,
2013-11-20 21:32:00,63.6,57.3,29.96,SSE,148,3.5,3.5,80,0.00,,,0.00,WeatherDisplay:10.37,2013-11-21 03:32:00,
2013-11-20 21:37:00,63.6,57.7,29.96,SSE,148,3.5,3.5,81,0.00,,,0.00,WeatherDisplay:10.37,2013-11-21 03:37:00,
2013-11-20 21:42:00,63.6,57.7,29.96,SSE,150,4.6,4.6,81,0.00,,,0.00,WeatherDisplay:10.37,2013-11-21 03:42:00,
2013-11-20 21:47:00,63.6,57.7,29.96,SSE,148,3.5,3.5,81,0.00,,,0.00,WeatherDisplay:10.37,2013-11-21 03:47:00,
2013-11-20 21:52:00,63.5,57.9,29.97,SSE,150,5.8,5.8,82,0.00,,,0.00,WeatherDisplay:10.37,2013-11-21 03:52:00,
2013-11-20 21:57:00,63.4,57.8,29.97,SSE,148,5.8,5.8,82,0.00,,,0.00,WeatherDisplay:10.37,2013-11-21 03:57:00,
2013-11-20 22:02:00,63.4,57.8,29.97,SE,146,3.5,3.5,82,0.00,,,0.00,WeatherDisplay:10.37,2013-11-21 04:02:00,
2013-11-20 22:07:00,63.3,57.7,29.97,SSE,150,11.5,11.5,82,0.00,,,0.00,WeatherDisplay:10.37,2013-11-21 04:07:00,
2013-11-20 22:12:00,63.3,57.7,29.97,SSE,150,3.5,3.5,82,0.00,,,0.00,WeatherDisplay:10.37,2013-11-21 04:12:00,
2013-11-20 22:17:00,63.2,57.6,29.97,SSE,148,3.5,0.0,82,0.00,,,0.00,WeatherDisplay:10.37,2013-11-21 04:17:00,
2013-11-20 22:22:00,63.2,57.9,29.96,SSE,148,5.8,5.8,83,0.00,,,0.00,WeatherDisplay:10.37,2013-11-21 04:22:00,
2013-11-20 22:27:00,63.2,57.9,29.96,SSE,148,3.5,3.5,83,0.00,,,0.00,WeatherDisplay:10.37,2013-11-21 04:27:00,
2013-11-20 22:32:00,63.2,57.9,29.96,SSE,152,3.0,3.0,83,0.00,,,0.00,WeatherDisplay:10.37,2013-11-21 04:32:00,
2013-11-20 22:37:00,63.2,57.9,29.96,SSE,152,3.5,3.5,83,0.00,,,0.00,WeatherDisplay:10.37,2013-11-21 04:37:00,
2013-11-20 22:42:00,63.1,58.2,29.96,SSE,152,4.6,4.6,84,0.00,,,0.00,WeatherDisplay:10.37,2013-11-21 04:42:00,
2013-11-20 22:47:00,63.1,58.2,29.96,SSE,150,4.6,4.6,84,0.00,,,0.00,WeatherDisplay:10.37,2013-11-21 04:47:00,
2013-11-20 22:52:00,63.0,58.1,29.96,SSE,150,6.0,6.0,84,0.00,,,0.00,WeatherDisplay:10.37,2013-11-21 04:52:00,
2013-11-20 22:57:00,62.8,57.9,29.96,SSE,150,1.1,0.0,84,0.00,,,0.00,WeatherDisplay:10.37,2013-11-21 04:57:00,
2013-11-20 23:01:00,62.7,58.1,29.96,SSE,150,0.0,0.0,85,0.00,,,0.00,WeatherDisplay:10.37,2013-11-21 05:01:00,
2013-11-20 23:02:00,62.7,58.1,29.96,SSE,150,6.9,6.9,85,0.00,,,0.00,WeatherDisplay:10.37,2013-11-21 05:02:00,
2013-11-20 23:07:00,62.6,58.0,29.96,SE,145,5.8,5.8,85,0.00,,,0.00,WeatherDisplay:10.37,2013-11-21 05:07:00,
2013-11-20 23:12:00,62.5,57.9,29.96,SE,146,3.5,3.5,85,0.00,,,0.00,WeatherDisplay:10.37,2013-11-21 05:12:00,
2013-11-20 23:17:00,62.5,57.9,29.96,SE,146,1.1,0.0,85,0.00,,,0.00,WeatherDisplay:10.37,2013-11-21 05:17:00,
2013-11-20 23:22:00,62.5,58.3,29.96,SE,146,3.5,3.5,86,0.00,,,0.00,WeatherDisplay:10.37,2013-11-21 05:22:00,
2013-11-20 23:27:00,62.6,58.4,29.96,SE,146,3.5,0.0,86,0.00,,,0.00,WeatherDisplay:10.37,2013-11-21 05:27:00,
2013-11-20 23:32:00,62.6,58.4,29.96,SE,146,0.0,0.0,86,0.00,,,0.00,WeatherDisplay:10.37,2013-11-21 05:32:00,
2013-11-20 23:37:00,62.7,58.5,29.96,SE,146,3.5,3.5,86,0.00,,,0.00,WeatherDisplay:10.37,2013-11-21 05:37:00,
2013-11-20 23:42:00,62.7,58.5,29.96,SE,146,3.5,3.5,86,0.00,,,0.00,WeatherDisplay:10.37,2013-11-21 05:42:00,
2013-11-20 23:47:00,62.8,58.5,29.96,SE,146,5.8,5.8,86,0.00,,,0.00,WeatherDisplay:10.37,2013-11-21 05:47:00,
2013-11-20 23:52:00,62.9,58.6,29.96,SE,146,3.5,3.5,86,0.00,,,0.00,WeatherDisplay:10.37,2013-11-21 05:52:00,
2013-11-20 23:57:00,62.9,58.6,29.96,SE,146,4.6,4.6,86,0.00,,,0.00,WeatherDisplay:10.37,2013-11-21 05:57:00,